Location: Étang Rond
(42.7927°N, 1.0661°E)
Time: 00:12:59
(UTC+00:00)

SL-08 R/B - Pass Details

Date: 08 November 2025
Orbit: 942 x 1007 km, 82.9° (Epoch: 07 December)

Event Time Altitude Azimuth Distance (km) Brightness Sun altitude
Rises 05:18:56 0° 350° (N) 3,622 7.3 -14.9°
Reaches altitude 10° 05:21:25 10° 349° (NNW) 2,678 6.6 -14.5°
Maximum altitude 05:27:30 73° 266° (W) 998 4.4 -13.4°
Drops below altitude 10° 05:33:38 10° 182° (S) 2,695 6.9 -12.3°
Sets 05:36:09 0° 181° (S) 3,646 7.6 -11.8°
